W3JBS-2 Weather Reports


time (UTC)temp
F
wind
direction
speed
knots
gust
knots
rain 1hr
in
rain 24hr
in
rain mn
in
humidity
%
barometer
mb
20260505123701 65 205 6.1 13.9 0.00 0.00 0.00 58 1011.0
20260505122200 64 213 0.9 6.1 0.00 0.00 0.00 61 1011.0
20260505120701 63 222 4.3 9.6 0.00 0.00 0.00 63 1010.9
20260505115201 62 236 3.5 7.8 0.00 0.00 0.00 65 1010.8
20260505113700 61 0 0.0 4.3 0.00 0.00 0.00 66 1010.8
20260505112201 60 0 0.0 3.5 0.00 0.00 0.00 68 1010.8
20260505110701 60 98 0.9 3.5 0.00 0.00 0.00 69 1010.5
20260505102201 58 0 0.0 3.5 0.00 0.00 0.00 69 1010.2
20260505100700 58 0 0.0 5.2 0.00 0.00 0.00 69 1010.1
20260505095201 59 0 0.0 3.5 0.00 0.00 0.00 68 1009.9
20260505093701 59 0 0.0 4.3 0.00 0.00 0.00 68 1009.8
20260505092200 60 0 0.0 4.3 0.00 0.00 0.00 67 1009.6
20260505090701 60 207 0.9 5.2 0.00 0.00 0.00 67 1009.8
20260505085201 60 0 0.0 7.8 0.00 0.00 0.00 67 1009.7
20260505083700 60 0 0.0 3.5 0.00 0.00 0.00 67 1009.7
20260505082201 60 0 0.0 4.3 0.00 0.00 0.00 68 1009.8
20260505080701 59 0 0.0 4.3 0.00 0.00 0.00 70 1009.7
20260505075200 59 0 0.0 3.5 0.00 0.00 0.00 69 1009.5
20260505073701 59 0 0.0 4.3 0.00 0.00 0.00 69 1009.6
20260505072201 59 0 0.0 2.6 0.00 0.00 0.00 69 1009.7
20260505070700 59 0 0.0 0.0 0.00 0.00 0.00 69 1009.7
20260505065201 58 0 0.0 0.0 0.00 0.00 0.00 68 1009.7
20260505063701 57 0 0.0 0.0 0.00 0.00 0.00 69 1009.8
20260505062200 57 0 0.0 2.6 0.00 0.00 0.00 69 1009.8
20260505060700 56 0 0.0 0.0 0.00 0.00 0.00 68 1009.8
20260505055201 56 0 0.0 0.0 0.00 0.00 0.00 66 1010.0
20260505053700 58 0 0.0 0.0 0.00 0.00 0.00 63 1010.0
20260505052200 59 0 0.0 0.0 0.00 0.00 0.00 61 1009.9
20260505050701 59 0 0.0 0.0 0.00 0.00 0.00 60 1010.0
20260505040700 61 209 1.7 6.1 0.00 0.00 0.00 56 1009.7
20260505035200 61 0 0.0 6.1 0.00 0.00 0.00 55 1009.7
20260505033700 61 213 2.6 7.8 0.00 0.00 0.00 55 1009.7
20260505032201 60 214 3.5 6.1 0.00 0.00 0.00 55 1009.9
20260505030700 60 0 0.0 0.9 0.00 0.00 0.00 54 1010.0
20260505025200 60 0 0.0 0.0 0.00 0.00 0.00 53 1009.8
20260505023700 60 0 0.0 0.0 0.00 0.00 0.00 53 1010.0
20260505022201 61 0 0.0 1.7 0.00 0.00 0.00 52 1010.1
20260505020700 61 0 0.0 5.2 0.00 0.00 0.00 52 1010.1
20260505015200 61 0 0.0 0.0 0.00 0.00 0.00 52 1010.0
20260505013701 61 0 0.0 0.0 0.00 0.00 0.00 50 1009.9
20260505012201 62 0 0.0 3.5 0.00 0.00 0.00 50 1009.9
20260505010700 62 0 0.0 5.2 0.00 0.00 0.00 49 1009.7
20260505005200 62 0 0.0 3.5 0.00 0.00 0.00 49 1009.6
20260505003700 64 0 0.0 0.0 0.00 0.00 0.00 47 1009.5
20260505002201 65 0 0.0 0.0 0.00 0.00 0.00 45 1009.3
20260505000700 67 0 0.0 0.0 0.00 0.00 0.00 43 1009.2
20260504235200 68 0 0.0 4.3 0.00 0.00 0.00 42 1009.2
20260504233700 68 0 0.0 3.5 0.00 0.00 0.00 41 1009.1
20260504232200 69 0 0.0 3.5 0.00 0.00 0.00 40 1009.1
20260504230701 70 0 0.0 12.2 0.00 0.00 0.00 40 1009.0
20260504223700 71 0 0.0 7.0 0.00 0.00 0.00 38 1009.2
20260504222200 70 227 1.7 6.1 0.00 0.00 0.00 39 1009.3
20260504220700 71 224 1.7 14.8 0.00 0.00 0.00 38 1009.3
20260504215201 72 0 0.0 4.3 0.00 0.00 0.00 40 1009.4
20260504213700 71 0 0.0 12.2 0.00 0.00 0.00 38 1009.5
20260504212200 71 0 0.0 13.9 0.00 0.00 0.00 39 1009.5
20260504210700 72 202 4.3 12.2 0.00 0.00 0.00 39 1009.5
20260504205200 71 201 7.8 13.0 0.00 0.00 0.00 38 1009.5
20260504203700 71 222 5.2 10.4 0.00 0.00 0.00 38 1009.6
20260504202200 71 234 5.2 13.9 0.00 0.00 0.00 38 1009.7
20260504200700 71 187 1.7 16.5 0.00 0.00 0.00 38 1009.8
20260504195200 71 217 0.9 10.4 0.00 0.00 0.00 39 1010.0
20260504193700 71 205 5.2 13.0 0.00 0.00 0.00 40 1010.1
20260504192200 70 208 2.6 11.3 0.00 0.00 0.00 39 1010.4
20260504190700 70 204 1.7 13.0 0.00 0.00 0.00 39 1010.5
20260504185200 70 209 7.8 16.5 0.00 0.00 0.00 40 1010.8
20260504183700 70 223 1.7 10.4 0.00 0.00 0.00 42 1010.9
20260504182200 69 187 2.6 15.6 0.00 0.00 0.00 38 1011.1
20260504180700 69 217 3.5 9.6 0.00 0.00 0.00 40 1011.3
20260504175200 68 216 2.6 11.3 0.00 0.00 0.00 39 1011.7
20260504173700 69 212 8.7 15.6 0.00 0.00 0.00 40 1011.8
20260504172200 68 231 1.7 10.4 0.00 0.00 0.00 41 1011.9
20260504170701 68 0 0.0 10.4 0.00 0.00 0.00 45 1012.0
20260504150700 64 236 1.7 8.7 0.00 0.00 0.00 50 1013.4